Regional Weather Roundup
Issued by NWS

Home | Current Version | Previous Version | Graphics & Text | Print | Product List | Glossary On
Versions: 1 2 3 4 5 6 7 8 9 10 11 12 13 14 15 16 17 18 19 20 21 22 23 24 25 26 27
000
ASUS45 KCYS 181210
RWRWY

WYOMING REGIONAL WEATHER ROUNDUP
NATIONAL WEATHER SERVICE CHEYENNE WY
600 AM MDT WED OCT 18 2017

NOTE:  "FAIR" INDICATES FEW OR NO CLOUDS BELOW 12,000 FEET
WITH NO SIGNIFICANT WEATHER AND/OR OBSTRUCTIONS TO VISIBILITY.

WYZ001-181300-
YELLOWSTONE NATIONAL PARK

CITY           SKY/WX    TMP DP  RH WIND       PRES   REMARKS
LK YELLOWSTONE NOT AVBL
W YELLOWSTONE  NOT AVBL

$$
WYZ002>013-054>058-071-098>099-181300-
NORTHERN WYOMING

CITY           SKY/WX    TMP DP  RH WIND       PRES   REMARKS
JACKSON        FAIR      41  16  36 S3        30.18S
CODY           NOT AVBL
GREYBULL       FAIR      41  25  53 CALM      29.98R
6HR MIN TEMP:  38; 6HR MAX TEMP:  58;

WORLAND        FAIR      34  26  72 S9        29.99R WCI  27
6HR MIN TEMP:  31; 6HR MAX TEMP:  46;

SHERIDAN       FAIR      40  24  53 SW8       29.99R WCI  34
6HR MIN TEMP:  39; 6HR MAX TEMP:  70;

BUFFALO        FAIR      54  13  19 N8        30.02R
6HR MIN TEMP:  49; 6HR MAX TEMP:  68;

GILLETTE       FAIR      42  22  44 N7        29.98R
6HR MIN TEMP:  39; 6HR MAX TEMP:  64;

HULETT         FAIR      52  23  32 N13G18    29.99R
NEWCASTLE      FAIR      43  23  45 CALM      29.95S

$$
WYZ014>020-022>026-101>103-181300-
CENTRAL WYOMING

CITY           SKY/WX    TMP DP  RH WIND       PRES   REMARKS
BIG PINEY      FAIR      28  11  48 N3        30.22R
6HR MIN TEMP:  26; 6HR MAX TEMP:  36;

PINEDALE       FAIR      23  16  74 N3        30.24R
DUBOIS         FAIR      41  12  30 NW14      30.15R
LANDER         FAIR      46  16  30 SW10      30.09R
6HR MIN TEMP:  42; 6HR MAX TEMP:  59;

RIVERTON       FAIR      43  17  35 W18       30.07R
6HR MIN TEMP:  39; 6HR MAX TEMP:  53;

CASPER         FAIR      46  10  23 SW17      30.07R
6HR MIN TEMP:  42; 6HR MAX TEMP:  59;

DOUGLAS        FAIR      49  13  23 NW12      30.05R
6HR MIN TEMP:  45; 6HR MAX TEMP:  59;


$$
WYZ021-027>030-104>119-181300-
SOUTHERN WYOMING

CITY           SKY/WX    TMP DP  RH WIND       PRES   REMARKS
EVANSTON       FAIR      41   8  25 SW6       30.25F
6HR MIN TEMP:  41; 6HR MAX TEMP:  49;

KEMMERER       FAIR      36   9  32 SW3       30.25R
FORT BRIDGER   FAIR      45   6  19 SW10      30.28R
ROCK SPRINGS   FAIR      42   5  21 SW16      30.21R
6HR MIN TEMP:  40; 6HR MAX TEMP:  48;

DIXON          FAIR      28  14  57 SE7       30.27R WCI  20
RAWLINS        FAIR      40   8  26 SW9       30.21R WCI  34
6HR MIN TEMP:  38; 6HR MAX TEMP:  50;

SARATOGA       FAIR      34  12  40 S6        30.22S WCI  29
LARAMIE        FAIR      38  11  32 W9        30.19R WCI  31
6HR MIN TEMP:  38; 6HR MAX TEMP:  56;

CHEYENNE       FAIR      56   9  15 W21       30.08R
6HR MIN TEMP:  52; 6HR MAX TEMP:  60;

TORRINGTON     FAIR      60   6  11 W9G18     29.98R
6HR MIN TEMP:  44; 6HR MAX TEMP:  63;

PINE BLUFFS    FAIR      45  21  39 CALM      30.07R

$$




USA.gov is the U.S. government's official web portal to all federal, state and local government web resources and services.